This is the latest recevied weather packets stored in our database for station/object DB0MI. If no packets are shown the sender has not sent any weather packets the latest 10 day(s).
| Time | Temp. | Humidity | Pressure | Rain* | Wind** | Luminosity | Snow |
|---|---|---|---|---|---|---|---|
| 1777123936 | 20° C | 37% | 1017.7 hPa | 0 mm | - | - | - |
| 1777123336 | 19.44° C | 37% | 1017.8 hPa | 0 mm | - | - | - |
| 1777122736 | 19.44° C | 38% | 1017.9 hPa | 0 mm | - | - | - |
| 1777122136 | 19.44° C | 39% | 1018 hPa | 0 mm | - | - | - |
| 1777121536 | 19.44° C | 39% | 1018 hPa | 0 mm | - | - | - |
| 1777120936 | 18.89° C | 38% | 1018 hPa | 0 mm | - | - | - |
| 1777120336 | 18.89° C | 36% | 1018.2 hPa | 0 mm | - | - | - |
| 1777119736 | 19.44° C | 34% | 1018.1 hPa | 0 mm | - | - | - |
| 1777119137 | 20° C | 35% | 1018.1 hPa | 0 mm | - | - | - |
| 1777118536 | 20.56° C | 34% | 1018.1 hPa | 0 mm | - | - | - |
| 1777117936 | 21.11° C | 34% | 1018.3 hPa | 0 mm | - | - | - |
| 1777117336 | 21.67° C | 33% | 1018.2 hPa | 0 mm | - | - | - |
| 1777116736 | 21.67° C | 33% | 1018.2 hPa | 0 mm | - | - | - |
| 1777116137 | 22.22° C | 35% | 1018.4 hPa | 0 mm | - | - | - |
| 1777115537 | 22.78° C | 35% | 1018.3 hPa | 0 mm | - | - | - |
| 1777114937 | 22.78° C | 35% | 1018.4 hPa | 0 mm | - | - | - |
| 1777114337 | 22.78° C | 37% | 1018.4 hPa | 0 mm | - | - | - |
| 1777113737 | 23.89° C | 38% | 1018.3 hPa | 0 mm | - | - | - |
| 1777113137 | 23.33° C | 38% | 1018.3 hPa | 0 mm | - | - | - |
| 1777112537 | 23.33° C | 39% | 1018.4 hPa | 0 mm | - | - | - |
| 1777111937 | 22.22° C | 40% | 1018.3 hPa | 0 mm | - | - | - |
| 1777111337 | 22.22° C | 41% | 1018.2 hPa | 0 mm | - | - | - |
| 1777110737 | 21.11° C | 43% | 1018.1 hPa | 0 mm | - | - | - |
| 1777110137 | 20° C | 46% | 1018 hPa | 0 mm | - | - | - |
| 1777109537 | 19.44° C | 47% | 1017.9 hPa | 0 mm | - | - | - |
* Rain latest hour (hover to see other rain measurements)
** Current wind speed in m/s (hover to see current wind gust speed)